Weather History for HECA - May, 2014

Change the Weather History Date:

Tuesday, May 20, 2014

  Actual Average Record
Temperature  
Mean Temperature 80 °F -  
Max Temperature 94 °F 90 °F 98 °F (2005)
Min Temperature 67 °F 67 °F 62 °F (2002)
Cooling Degree Days 16    
Growing Degree Days 30 (Base 50)    
Moisture  
Dew Point 44 °F    
Average Humidity 28    
Maximum Humidity 68    
Minimum Humidity 8    
Precipitation  
Precipitation 0.00 in 0.00 in - ()
Sea Level Pressure  
Sea Level Pressure 29.94 in    
Wind  
Wind Speed 9 mph ()    
Max Wind Speed 15 mph    
Max Gust Speed -    
Visibility 6.0 miles    
Events      
Averages and records for this station are not official NWS values.
T = Trace of Precipitation, MM = Missing Value Source: Averaged Metar Reports

Daily Weather History Graph

Daily Weather History Graph

Search for Another Location

Airport or City:

Trip Planner

Search our weather history database for the weather conditions in past years. The results will help you decide how hot, cold, wet, or windy it might be!

Date:

Astronomy

May. 20, 2014 Rise Set
Actual Time 5:58 AM EEST 7:43 PM EEST
Civil Twilight 5:31 AM EEST 8:10 PM EEST
Nautical Twilight 4:59 AM EEST 8:42 PM EEST
Astronomical Twilight 4:26 AM EEST 9:16 PM EEST
Moon 12:08 AM EEST (5/20) 11:32 AM EEST (5/20)
Length of Visible Light 14h 38m
Length of Day
13h 45m
Waning Gibbous, 63% of the Moon is Illuminated
May 20
Waning Gibbous
May 21
Last Quarter
May 28
New
Jun 5
First Quarter
Jun 13
Full

Hourly Weather History & Observations

Time (EEST) Temp. Dew Point Humidity Pressure Visibility Wind Dir Wind Speed Gust Speed Precip Events Conditions
12:00 AM 72 °F 56 °F 47% 30.06 in 6 mi NE 13.8 mph - -  
12:00 AM 73.4 °F 55.4 °F 53% 30.06 in - NE 13.8 mph - N/A   Clear
12:30 AM 71.6 °F 55.4 °F 57% 30.06 in - NNE 11.5 mph - N/A   Clear
1:00 AM 69.8 °F 53.6 °F 56% 30.04 in - NNE 11.5 mph - N/A   Clear
1:30 AM 69.8 °F 53.6 °F 56% 30.04 in - NNE 10.4 mph - N/A   Clear
2:00 AM 69.8 °F 55.4 °F 60% 30.04 in - NE 9.2 mph - N/A   Clear
2:30 AM 68.0 °F 55.4 °F 64% 30.01 in - NE 9.2 mph - N/A   Clear
3:00 AM 69 °F 56 °F 55% 30.01 in 6 mi NE 9.2 mph - -  
3:00 AM 68.0 °F 57.2 °F 68% 30.01 in - NE 9.2 mph - N/A   Clear
3:30 AM 68.0 °F 55.4 °F 64% 30.01 in - NNE 6.9 mph - N/A   Clear
4:00 AM 68.0 °F 55.4 °F 64% 30.01 in - NE 9.2 mph - N/A   Clear
6:00 AM 67 °F 55 °F 56% 29.99 in 6 mi ENE 6.9 mph - -  
8:30 AM 71.6 °F 50.0 °F 46% 30.01 in - NE 8.1 mph - N/A   Clear
9:00 AM 76 °F 38 °F 15% 30.00 in 6 mi ENE 11.5 mph - -  
9:00 AM 75.2 °F 37.4 °F 25% 30.01 in - ENE 11.5 mph - N/A   Clear
9:30 AM 78.8 °F 37.4 °F 23% 29.98 in - ENE 12.7 mph - N/A   Clear
10:00 AM 80.6 °F 39.2 °F 23% 29.98 in - ENE 11.5 mph - N/A   Clear
10:30 AM 84.2 °F 39.2 °F 20% 29.98 in - ENE 8.1 mph - N/A   Clear
11:00 AM 86.0 °F 39.2 °F 19% 29.98 in - NE 3.5 mph - N/A   Clear
11:30 AM 87.8 °F 41.0 °F 19% 29.98 in - NE 5.8 mph - N/A   Clear
12:00 PM 90 °F 41 °F 10% 29.94 in 6 mi NE 8.1 mph - -   Partly Cloudy
12:00 PM 89.6 °F 41.0 °F 18% 29.95 in - NE 8.1 mph - N/A   Clear
12:30 PM 89.6 °F 41.0 °F 18% 29.95 in - NE 8.1 mph - N/A   Clear
1:00 PM 91.4 °F 41.0 °F 17% 29.95 in - NE 8.1 mph - N/A   Clear
1:30 PM 91.4 °F 41.0 °F 17% 29.95 in - NE 8.1 mph - N/A   Clear
2:00 PM 93.2 °F 37.4 °F 14% 29.92 in - NE 8.1 mph - N/A   Clear
2:30 PM 93.2 °F 37.4 °F 14% 29.92 in - NE 8.1 mph - N/A   Clear
3:00 PM 93 °F 40 °F 9% 29.91 in 6 mi NE 9.2 mph - -   Mostly Cloudy
3:00 PM 93.2 °F 41.0 °F 16% 29.92 in - NE 9.2 mph - N/A   Clear
3:30 PM 95.0 °F 41.0 °F 15% 29.89 in - NE 9.2 mph - N/A   Clear
4:00 PM 95.0 °F 39.2 °F 14% 29.89 in - NE 9.2 mph - N/A   Clear
4:30 PM 95.0 °F 39.2 °F 14% 29.89 in - NNE 6.9 mph - N/A   Clear
5:00 PM 95.0 °F 39.2 °F 14% 29.89 in - ENE 3.5 mph - N/A   Clear
5:30 PM 95.0 °F 39.2 °F 14% 29.86 in - Calm Calm - N/A   Clear
6:00 PM 94 °F 40 °F 8% 29.86 in 6 mi NNE 8.1 mph - -   Mostly Cloudy
6:00 PM 93.2 °F 39.2 °F 15% 29.86 in - NNE 8.1 mph - N/A   Clear
6:30 PM 93.2 °F 39.2 °F 15% 29.86 in - NNE 8.1 mph - N/A   Clear
7:00 PM 93.2 °F 41.0 °F 16% 29.86 in - NNE 9.2 mph - N/A   Clear
7:30 PM 91.4 °F 42.8 °F 18% 29.83 in - NE 12.7 mph - N/A   Clear
8:00 PM 91.4 °F 42.8 °F 18% 29.83 in - NE 15.0 mph - N/A   Clear
8:30 PM 89.6 °F 42.8 °F 20% 29.83 in - East 12.7 mph - N/A   Clear
9:00 PM 89 °F 40 °F 10% 29.84 in 6 mi East 12.7 mph - -   Partly Cloudy
9:00 PM 89.6 °F 41.0 °F 18% 29.83 in - East 12.7 mph - N/A   Clear
9:30 PM 87.8 °F 41.0 °F 19% 29.83 in - East 10.4 mph - N/A   Clear
10:00 PM 86.0 °F 41.0 °F 20% 29.86 in - East 9.2 mph - N/A   Clear
10:30 PM 86.0 °F 41.0 °F 20% 29.86 in - East 9.2 mph - N/A   Clear
11:00 PM 84.2 °F 41.0 °F 22% 29.83 in - East 9.2 mph - N/A   Clear
11:30 PM 84.2 °F 41.0 °F 22% 29.83 in - ENE 9.2 mph - N/A   Clear